Wind From: 10-12-2017 19:04 Until: 11-12-2017 16:00 warning for: Wind Level: Orange info button

Power and phone distribution networks may be disrupted for relatively long periods., Roofs and chimneys can be damaged. , Tree branches may break. , Vehicles can be deported. , Traffic may be disrupted, particularly on secondary roads in forest areas. Limit your trips. , Limit your speed in highway driving, especially if you drive a vehicle or hitch sensitive to wind. , Do not go for walks in forests or along the coast., In town, be vigilant against possible falling objects., Do not work on roofs and do not touch any electrical line fallen on the ground., Store or secure sensitive objects to wind or likely to be damaged., Always install power generators outside buildings. 


Meteo18 Weather Cam more information Meteo18 Weather Cam


Thunder radar more information blitzortung!


Rain radar more information rain snow radar


Visit our other weather sites:

Template documentation
and downloads

And another site



Weather Underground History page Text

Daily Summary for March 21, 2017 Units:  English    Metric   Both
« Previous Day
Next Day »
Daily Weekly Monthly Yearly Custom
  High: Low: Average:
Temperature: 49.5 °F 38.5 °F 45.7 °F
Dew Point: 47.3 °F 37.2 °F 43.2 °F
Humidity: 97 % 80 % 91 %
Wind Speed: 12 mph 0 mph 3.9 mph
Wind Gust: 18 mph - -
Wind:- - WSW
Pressure: 30 in 29.9 in -
Precipitation: 0.25 in    
Historical Graphs
 
 
Tabular Data for March 21, 2017
Time Temperature Dew Point Pressure Wind Wind Speed Wind Gust Humidity Rainfall Rate (Hourly)
00:02 49.5 °F 43.5 °F 30 in WSW 5 mph 11 mph 80 % 0 in
00:12 49.5 °F 43.5 °F 30 in SW 9 mph 11 mph 80 % 0 in
00:17 49.5 °F 43.5 °F 30 in WSW 5 mph 11 mph 80 % 0 in
00:22 49.3 °F 43.3 °F 30 in SW 6 mph 10 mph 80 % 0 in
00:32 49.3 °F 43.3 °F 30 in WNW 4 mph 9 mph 80 % 0 in
00:37 49.3 °F 43.3 °F 30 in WSW 6 mph 9 mph 80 % 0 in
00:42 49.3 °F 43.3 °F 30 in WSW 6 mph 10 mph 80 % 0 in
00:47 49.3 °F 43.7 °F 30 in WSW 4 mph 9 mph 81 % 0 in
00:52 49.3 °F 43.7 °F 30 in SW 3 mph 9 mph 81 % 0 in
00:57 49.3 °F 43.7 °F 30 in SW 8 mph 11 mph 81 % 0 in
01:02 49.3 °F 43.7 °F 30 in WSW 12 mph 12 mph 81 % 0 in
01:12 49.3 °F 43.7 °F 30 in SW 9 mph 12 mph 81 % 0 in
01:17 49.3 °F 44.1 °F 30 in WSW 4 mph 14 mph 82 % 0 in
01:22 49.1 °F 43.9 °F 30 in West 8 mph 14 mph 82 % 0 in
01:27 49.1 °F 43.9 °F 30 in SW 5 mph 14 mph 82 % 0 in
01:32 49.1 °F 43.9 °F 30 in WSW 8 mph 14 mph 82 % 0 in
01:42 49.1 °F 43.9 °F 30 in WSW 7 mph 18 mph 82 % 0 in
01:52 48.9 °F 44.1 °F 30 in SW 7 mph 14 mph 83 % 0 in
01:57 48.9 °F 44.1 °F 30 in WSW 4 mph 13 mph 83 % 0 in
02:02 48.9 °F 44.2 °F 30 in WSW 11 mph 13 mph 84 % 0 in
02:07 48.9 °F 44.2 °F 30 in SW 8 mph 17 mph 84 % 0 in
02:12 48.7 °F 44.1 °F 30 in WSW 9 mph 17 mph 84 % 0 in
02:17 48.7 °F 44.1 °F 30 in WSW 11 mph 14 mph 84 % 0 in
02:22 48.7 °F 44.1 °F 30 in WSW 7 mph 14 mph 84 % 0 in
02:27 48.7 °F 44.1 °F 30 in WSW 6 mph 16 mph 84 % 0 in
02:32 48.6 °F 43.9 °F 30 in SSW 6 mph 16 mph 84 % 0 in
02:42 48.6 °F 44.2 °F 30 in WSW 9 mph 12 mph 85 % 0 in
02:47 48.6 °F 44.2 °F 30 in SW 9 mph 12 mph 85 % 0 in
02:52 48.6 °F 44.2 °F 30 in SW 5 mph 12 mph 85 % 0 in
02:57 48.4 °F 44.1 °F 30 in SW 4 mph 12 mph 85 % 0 in
03:02 48.6 °F 44.2 °F 29.9 in WSW 4 mph 12 mph 85 % 0 in
03:07 48.6 °F 44.2 °F 29.9 in SW 5 mph 11 mph 85 % 0 in
03:12 48.4 °F 44.1 °F 29.9 in SW 6 mph 11 mph 85 % 0 in
03:17 48.4 °F 44.4 °F 29.9 in SW 6 mph 14 mph 86 % 0 in
03:22 48.2 °F 44.6 °F 29.9 in WSW 4 mph 14 mph 87 % 0 in
03:32 47.8 °F 44.2 °F 29.9 in SW 7 mph 12 mph 87 % 0 in
03:37 47.8 °F 44.4 °F 29.9 in SW 6 mph 11 mph 88 % 0 in
03:42 47.8 °F 44.4 °F 29.9 in SW 10 mph 11 mph 88 % 0 in
03:52 47.8 °F 44.4 °F 29.9 in WSW 11 mph 12 mph 88 % 0 in
03:57 47.7 °F 44.2 °F 29.9 in SW 6 mph 14 mph 88 % 0 in
04:02 47.5 °F 44.8 °F 29.9 in WSW 6 mph 14 mph 90 % 0 in
04:07 47.3 °F 44.8 °F 29.9 in SW 8 mph 14 mph 91 % 0 in
04:12 47.1 °F 45 °F 29.9 in WSW 7 mph 14 mph 92 % 0 in
04:17 46.9 °F 44.8 °F 29.9 in SW 5 mph 11 mph 92 % 0 in
04:22 46.9 °F 44.8 °F 29.9 in SW 3 mph 11 mph 92 % 0 in
04:27 46.9 °F 44.8 °F 29.9 in WSW 4 mph 13 mph 92 % 0 in
04:32 46.9 °F 44.8 °F 29.9 in SW 7 mph 13 mph 92 % 0 in
04:42 47.1 °F 44.6 °F 29.9 in SW 7 mph 11 mph 91 % 0 in
04:47 47.1 °F 44.6 °F 29.9 in SW 10 mph 13 mph 91 % 0 in
04:52 46.9 °F 44.8 °F 29.9 in SW 8 mph 13 mph 92 % 0 in
04:57 46.8 °F 44.8 °F 29.9 in SW 7 mph 14 mph 93 % 0 in
05:02 46.8 °F 44.8 °F 29.9 in SW 6 mph 14 mph 93 % 0 in
05:07 46.6 °F 44.6 °F 29.9 in SSW 11 mph 14 mph 93 % 0 in
05:17 46.6 °F 45 °F 29.9 in SSW 7 mph 13 mph 94 % 0 in
05:22 46.6 °F 45 °F 29.9 in SW 8 mph 13 mph 94 % 0 in
05:32 46.6 °F 45 °F 29.9 in SSW 8 mph 12 mph 94 % 0 in
05:42 46.6 °F 45 °F 29.9 in SSW 6 mph 13 mph 94 % 0 in
05:52 46.4 °F 44.8 °F 29.9 in SW 6 mph 12 mph 94 % 0 in
06:02 46.2 °F 44.8 °F 29.9 in SSW 7 mph 11 mph 95 % 0 in
06:12 46.2 °F 44.8 °F 29.9 in SW 8 mph 11 mph 95 % 0 in
06:17 46.2 °F 44.8 °F 29.9 in SW 6 mph 11 mph 95 % 0 in
06:27 46 °F 45 °F 29.9 in SW 5 mph 11 mph 96 % 0 in
06:32 46 °F 45 °F 29.9 in SW 6 mph 11 mph 96 % 0 in
06:42 46 °F 45 °F 29.9 in SW 6 mph 10 mph 96 % 0 in
06:47 46 °F 45 °F 29.9 in SSW 6 mph 10 mph 96 % 0 in
06:52 46 °F 45 °F 29.9 in SSW 6 mph 10 mph 96 % 0 in
06:57 46 °F 45 °F 29.9 in SW 7 mph 10 mph 96 % 0 in
07:02 46 °F 45 °F 29.9 in SW 6 mph 10 mph 96 % 0 in
07:07 46 °F 45 °F 29.9 in WSW 5 mph 10 mph 96 % 0 in
07:12 46 °F 45 °F 29.9 in SSW 4 mph 10 mph 96 % 0 in
07:17 46 °F 45 °F 29.9 in SW 8 mph 10 mph 96 % 0 in
07:22 46 °F 45 °F 29.9 in SW 7 mph 11 mph 96 % 0 in
07:27 46 °F 45 °F 29.9 in SW 5 mph 11 mph 96 % 0 in
07:32 46.2 °F 45.1 °F 29.9 in SW 4 mph 11 mph 96 % 0 in
07:37 46.2 °F 45.1 °F 29.9 in SSW 5 mph 11 mph 96 % 0 in
07:42 46.2 °F 45.1 °F 29.9 in SW 9 mph 10 mph 96 % 0 in
07:47 46.2 °F 45.5 °F 29.9 in SW 7 mph 10 mph 97 % 0 in
07:52 46.2 °F 45.5 °F 29.9 in SW 7 mph 11 mph 97 % 0 in
07:57 46.4 °F 45.7 °F 29.9 in SSW 5 mph 11 mph 97 % 0 in
08:02 46.4 °F 45.7 °F 29.9 in SW 5 mph 9 mph 97 % 0 in
08:07 46.6 °F 45.9 °F 29.9 in SW 6 mph 9 mph 97 % 0 in
08:12 46.6 °F 45.9 °F 29.9 in SW 3 mph 10 mph 97 % 0 in
08:17 46.6 °F 45.9 °F 29.9 in SW 3 mph 10 mph 97 % 0 in
08:22 46.6 °F 45.9 °F 29.9 in SW 5 mph 9 mph 97 % 0 in
08:32 46.8 °F 46 °F 29.9 in SW 6 mph 9 mph 97 % 0 in
08:37 46.8 °F 46 °F 29.9 in SW 3 mph 9 mph 97 % 0 in
08:42 46.8 °F 46 °F 29.9 in SW 4 mph 8 mph 97 % 0 in
08:47 46.9 °F 46.2 °F 29.9 in WSW 6 mph 8 mph 97 % 0 in
08:57 47.1 °F 46.4 °F 29.9 in West 6 mph 7 mph 97 % 0.01 in
09:02 47.1 °F 46 °F 29.9 in WSW 4 mph 10 mph 96 % 0.01 in
09:07 47.1 °F 46 °F 29.9 in West 2 mph 10 mph 96 % 0.01 in
09:17 47.5 °F 46.4 °F 29.9 in SW 3 mph 9 mph 96 % 0.02 in
09:22 47.5 °F 46.4 °F 29.9 in West 5 mph 9 mph 96 % 0.02 in
09:27 47.5 °F 46.4 °F 29.9 in West 4 mph 9 mph 96 % 0.02 in
09:32 47.7 °F 46.6 °F 29.9 in WSW 5 mph 10 mph 96 % 0.02 in
09:37 47.7 °F 46.2 °F 29.9 in West 2 mph 10 mph 95 % 0.02 in
09:42 47.8 °F 46.4 °F 29.9 in West 3 mph 10 mph 95 % 0.02 in
09:47 47.8 °F 46.4 °F 29.9 in WSW 1 mph 10 mph 95 % 0.02 in
09:52 48 °F 46.6 °F 29.9 in West 3 mph 9 mph 95 % 0.03 in
09:57 48 °F 46.6 °F 29.9 in WSW 2 mph 9 mph 95 % 0.03 in
10:02 48.2 °F 46.8 °F 29.9 in Calm   6 mph 95 % 0.04 in
10:07 48.4 °F 46.8 °F 29.9 in West 1 mph 6 mph 94 % 0.04 in
10:12 48.4 °F 46.8 °F 29.9 in WSW 1 mph 3 mph 94 % 0.04 in
10:17 48.4 °F 46.8 °F 29.9 in West 1 mph 3 mph 94 % 0.04 in
10:22 48.4 °F 46.4 °F 29.9 in SW 2 mph 2 mph 93 % 0.04 in
10:27 48.4 °F 46.4 °F 29.9 in Calm   2 mph 93 % 0.04 in
10:32 48.6 °F 46.4 °F 29.9 in Calm   3 mph 92 % 0.04 in
10:37 48.7 °F 46.6 °F 29.9 in SW 2 mph 3 mph 92 % 0.04 in
10:42 48.7 °F 46.8 °F 29.9 in Calm   4 mph 93 % 0.03 in
10:47 48.9 °F 46.9 °F 29.9 in Calm   4 mph 93 % 0.03 in
10:52 48.9 °F 46.9 °F 29.9 in SW 2 mph 4 mph 93 % 0.02 in
11:02 48.9 °F 47.3 °F 29.9 in WNW 2 mph 3 mph 94 % 0.02 in
11:12 48.9 °F 46.9 °F 29.9 in WSW 4 mph 4 mph 93 % 0.03 in
11:17 48.7 °F 46.6 °F 30 in West 2 mph 4 mph 92 % 0.03 in
11:22 48.7 °F 46.6 °F 29.9 in WSW 3 mph 8 mph 92 % 0.02 in
11:32 48.7 °F 45.9 °F 30 in West 3 mph 8 mph 90 % 0.03 in
11:37 48.7 °F 45.3 °F 30 in WNW 5 mph 8 mph 88 % 0.03 in
11:42 48.9 °F 45.9 °F 30 in WNW 4 mph 8 mph 89 % 0.03 in
11:47 48.6 °F 45.1 °F 30 in NNW 8 mph 8 mph 88 % 0.03 in
11:52 47.8 °F 44.4 °F 30 in West 5 mph 10 mph 88 % 0.05 in
12:02 47.1 °F 43.7 °F 30 in NW 7 mph 11 mph 88 % 0.06 in
12:07 47.3 °F 44.2 °F 30 in WNW 1 mph 11 mph 89 % 0.05 in
12:12 47.5 °F 44.4 °F 30 in WNW 5 mph 11 mph 89 % 0.05 in
12:17 47.7 °F 45 °F 30 in NW 2 mph 9 mph 90 % 0.05 in
12:22 47.8 °F 44.8 °F 30 in NW 1 mph 7 mph 89 % 0.04 in
12:32 48 °F 45 °F 30 in WNW 3 mph 7 mph 89 % 0.04 in
12:37 48.2 °F 45.1 °F 30 in WNW 3 mph 7 mph 89 % 0.04 in
12:42 48 °F 44.6 °F 30 in West 5 mph 7 mph 88 % 0.04 in
12:47 48 °F 45 °F 30 in NW 7 mph 9 mph 89 % 0.02 in
12:52 47.8 °F 43.5 °F 30 in NW 4 mph 9 mph 85 % 0.01 in
12:57 47.7 °F 43.3 °F 30 in WNW 7 mph 11 mph 85 % 0.02 in
13:02 47.5 °F 42.8 °F 30 in NW 2 mph 11 mph 84 % 0.02 in
13:07 47.7 °F 43.3 °F 30 in West 1 mph 10 mph 85 % 0.01 in
13:12 47.8 °F 44.4 °F 30 in NW 2 mph 10 mph 88 % 0.01 in
13:17 47.8 °F 44.2 °F 30 in WNW 7 mph 7 mph 87 % 0.01 in
13:22 47.7 °F 43.3 °F 30 in NW 2 mph 6 mph 85 % 0.01 in
13:32 47.1 °F 43.5 °F 30 in WNW 2 mph 8 mph 87 % 0.01 in
13:47 47.1 °F 44.4 °F 30 in WNW 5 mph 8 mph 90 % 0.02 in
13:52 47.1 °F 44.4 °F 30 in NNW 10 mph 10 mph 90 % 0.02 in
13:57 46 °F 43 °F 30 in NNW 7 mph 15 mph 89 % 0.02 in
14:02 45.1 °F 42.4 °F 30 in WNW 6 mph 15 mph 90 % 0.02 in
14:12 44.6 °F 42.4 °F 30 in NW 2 mph 16 mph 92 % 0.03 in
14:17 44.8 °F 42.6 °F 30 in NW 7 mph 16 mph 92 % 0.04 in
14:22 44.4 °F 41.9 °F 30 in NW 6 mph 16 mph 91 % 0.04 in
14:32 44.4 °F 41.7 °F 30 in NW 10 mph 15 mph 90 % 0.05 in
14:42 44.4 °F 41.4 °F 30 in NW 1 mph 13 mph 89 % 0.05 in
14:47 44.4 °F 41.7 °F 30 in NNW 4 mph 13 mph 90 % 0.05 in
14:52 44.4 °F 41.7 °F 30 in NNE 2 mph 13 mph 90 % 0.05 in
15:02 44.4 °F 41.7 °F 30 in NW 4 mph 10 mph 90 % 0.05 in
15:12 44.4 °F 41.7 °F 30 in WNW 4 mph 12 mph 90 % 0.04 in
15:17 44.2 °F 41.5 °F 30 in NW 3 mph 16 mph 90 % 0.03 in
15:22 44.1 °F 41 °F 30 in WNW 4 mph 16 mph 89 % 0.03 in
15:27 43.9 °F 41.2 °F 30 in North 1 mph 16 mph 90 % 0.02 in
15:32 44.1 °F 41.5 °F 30 in NW 1 mph 16 mph 91 % 0.02 in
15:37 44.1 °F 41.5 °F 30 in NNW 5 mph 10 mph 91 % 0.02 in
15:42 44.1 °F 41.4 °F 30 in NNW 2 mph 10 mph 90 % 0.02 in
15:47 44.1 °F 41.4 °F 30 in West 3 mph 9 mph 90 % 0.02 in
16:02 44.1 °F 41 °F 30 in NNW 5 mph 11 mph 89 % 0.02 in
16:12 44.1 °F 41 °F 30 in NW 1 mph 11 mph 89 % 0.02 in
16:17 44.1 °F 40.8 °F 30 in NW 4 mph 9 mph 88 % 0.02 in
16:27 44.1 °F 40.8 °F 30 in Calm   9 mph 88 % 0.01 in
16:32 44.1 °F 40.8 °F 30 in Calm   9 mph 88 % 0.01 in
16:37 44.1 °F 40.8 °F 30 in Calm   5 mph 88 % 0.01 in
16:42 44.1 °F 40.8 °F 30 in WNW 1 mph 5 mph 88 % 0.01 in
16:47 44.2 °F 41 °F 30 in WNW 1 mph 2 mph 88 % 0.01 in
16:52 44.2 °F 41 °F 30 in Calm   2 mph 88 % 0.01 in
17:02 44.2 °F 41 °F 30 in Calm   2 mph 88 % 0.01 in
17:07 44.2 °F 41 °F 30 in West 1 mph 2 mph 88 % 0.01 in
17:12 44.2 °F 41 °F 30 in WNW 1 mph 2 mph 88 % 0.01 in
17:17 44.2 °F 41 °F 30 in WNW 2 mph 3 mph 88 % 0.01 in
17:22 44.2 °F 40.6 °F 30 in WNW 4 mph 4 mph 87 % 0.01 in
17:32 44.4 °F 41.2 °F 30 in WSW 2 mph 6 mph 88 % 0.01 in
17:37 44.4 °F 39.2 °F 30 in West 2 mph 8 mph 82 % 0.01 in
17:42 44.4 °F 39.6 °F 30 in West 1 mph 8 mph 83 % 0.01 in
17:47 44.4 °F 39.6 °F 30 in WNW 4 mph 8 mph 83 % 0.01 in
17:52 44.2 °F 40.1 °F 30 in Calm   8 mph 85 % 0.01 in
18:02 44.1 °F 40.1 °F 30 in West 1 mph 4 mph 86 % 0.01 in
18:12 43.9 °F 40.3 °F 30 in Calm   2 mph 87 % 0.02 in
18:17 43.7 °F 40.1 °F 30 in Calm   2 mph 87 % 0.02 in
18:22 43.5 °F 39.9 °F 30 in Calm   1 mph 87 % 0.02 in
18:27 43.5 °F 39.9 °F 30 in Calm   1 mph 87 % 0.02 in
18:32 43.5 °F 39.9 °F 30 in Calm   1 mph 87 % 0.02 in
18:37 43.5 °F 40.3 °F 30 in Calm   1 mph 88 % 0.02 in
18:42 43.5 °F 40.8 °F 30 in Calm   1 mph 90 % 0.01 in
18:52 43.5 °F 41 °F 30 in Calm   1 mph 91 % 0.01 in
18:57 43.3 °F 40.8 °F 30 in Calm   1 mph 91 % 0.01 in
19:02 43.2 °F 40.6 °F 30 in Calm   1 mph 91 % 0.01 in
19:07 43.2 °F 41 °F 30 in Calm   1 mph 92 % 0.01 in
19:12 43.2 °F 41 °F 30 in Calm   1 mph 92 % 0 in
19:17 43.2 °F 41 °F 30 in SSW 2 mph 3 mph 92 % 0 in
19:22 43.2 °F 41 °F 30 in Calm   3 mph 92 % 0 in
19:32 43.3 °F 41.5 °F 30 in SSW 1 mph 3 mph 93 % 0 in
19:37 43.3 °F 41.5 °F 30 in South 1 mph 4 mph 93 % 0 in
19:42 43.3 °F 41.5 °F 30 in SSW 2 mph 4 mph 93 % 0 in
19:52 43.2 °F 41.4 °F 30 in SW 2 mph 4 mph 93 % 0 in
19:57 43.2 °F 41.4 °F 30 in SSW 2 mph 6 mph 93 % 0 in
20:02 43 °F 41.2 °F 30 in SW 3 mph 6 mph 93 % 0 in
20:07 43 °F 41.2 °F 30 in SW 3 mph 6 mph 93 % 0 in
20:12 43 °F 41.2 °F 30 in Calm   6 mph 93 % 0 in
20:17 42.8 °F 41 °F 30 in SSW 2 mph 5 mph 93 % 0 in
20:22 42.8 °F 41.2 °F 30 in WSW 4 mph 5 mph 94 % 0 in
20:32 42.6 °F 41 °F 30 in SW 4 mph 7 mph 94 % 0 in
20:37 42.6 °F 41 °F 30 in SW 3 mph 6 mph 94 % 0 in
20:42 42.4 °F 40.8 °F 30 in SW 5 mph 6 mph 94 % 0 in
20:52 42.4 °F 40.8 °F 30 in SSW 1 mph 6 mph 94 % 0 in
20:57 42.3 °F 40.6 °F 30 in SW 2 mph 7 mph 94 % 0 in
21:02 42.3 °F 40.6 °F 30 in SW 2 mph 7 mph 94 % 0 in
21:07 42.3 °F 40.6 °F 30 in WSW 4 mph 6 mph 94 % 0 in
21:12 42.1 °F 40.5 °F 30 in SW 2 mph 6 mph 94 % 0 in
21:17 41.9 °F 40.3 °F 30 in SW 1 mph 8 mph 94 % 0 in
21:22 41.7 °F 40.1 °F 30 in SW 5 mph 8 mph 94 % 0 in
21:32 41.5 °F 39.7 °F 30 in WSW 4 mph 9 mph 93 % 0 in
21:42 41.4 °F 39.7 °F 30 in SW 2 mph 9 mph 94 % 0 in
21:52 41.2 °F 39.4 °F 30 in SW 3 mph 6 mph 93 % 0 in
21:57 40.8 °F 39 °F 30 in SSW 2 mph 7 mph 93 % 0 in
22:02 40.6 °F 39 °F 30 in SW 4 mph 7 mph 94 % 0 in
22:12 40.6 °F 39 °F 30 in SSW 3 mph 5 mph 94 % 0 in
22:17 40.5 °F 38.8 °F 30 in SW 3 mph 7 mph 94 % 0 in
22:22 40.3 °F 38.7 °F 30 in SW 3 mph 7 mph 94 % 0 in
22:32 39.9 °F 38.7 °F 30 in SSW 1 mph 5 mph 95 % 0 in
22:37 39.9 °F 38.7 °F 30 in South 2 mph 4 mph 95 % 0 in
22:42 39.7 °F 38.5 °F 30 in Calm   4 mph 95 % 0 in
22:47 39.7 °F 38.5 °F 30 in SSW 1 mph 3 mph 95 % 0 in
22:52 39.7 °F 38.5 °F 30 in SSW 1 mph 3 mph 95 % 0 in
23:02 39.7 °F 38.5 °F 30 in Calm   3 mph 95 % 0 in
23:07 39.6 °F 38.3 °F 30 in Calm   4 mph 95 % 0 in
23:12 39.4 °F 38.1 °F 30 in SW 1 mph 4 mph 95 % 0 in
23:17 39.4 °F 38.1 °F 30 in SW 1 mph 2 mph 95 % 0 in
23:22 39.4 °F 38.1 °F 30 in SSW 2 mph 2 mph 95 % 0 in
23:32 39 °F 37.8 °F 30 in SSW 1 mph 3 mph 95 % 0 in
23:37 39 °F 37.8 °F 30 in SSW 2 mph 3 mph 95 % 0 in
23:42 39 °F 37.8 °F 30 in SSW 1 mph 3 mph 95 % 0 in
23:47 38.8 °F 37.6 °F 30 in Calm   3 mph 95 % 0 in
23:52 38.7 °F 37.4 °F 30 in Calm   3 mph 95 % 0 in
23:57 38.5 °F 37.2 °F 30 in Calm   2 mph 95 % 0 in
Meteo18
Compliments of Weather Underground - 4 mb

Script developed by  Jim McMurry - jmcmurry@mwt.net Adapted for the template by  Wim van der Kuil - Leuven-Template.eu

You find our weather info also at:

European Weather Network

Weather Underground

Equipment we use:

Weather-station
Davis Vue

Weather-program
Meteohub

Weather-server
Raspberry PI 2 B+

Provider
1 and 1

Davis Vue

Meteohub

Raspberry PI 2 B+

1 and 1